Probability
0 0 0 0 0 0 0 0 0 0 0 0 0 0 0 0 0 0 0 0 0 0 0 0 0 0 0 0 0 0 0 0 0 0 0 0 0 0 0 0 0 0 0 0
0 0 0 0 0 0 0 0 0 0 0 0 0 0 0 0 0 0 0 0 0 0 0 0 0 0 0 0 0 0 0 0 0 0 0 0 0 0 0 0 0 0 0 0
0 0 0 0 0 0 0 0 0 0 0 0 0 0 0 0 0 0 0 0 0 0 0 0 0 0 0 0 0 0 0 0 0 0 0 0 0 0 0 0 0 0 0 0
0 0 0 0 0 0 0 0 0 0 0 0 0 0 0 0 0 0 0 0 0 0 0 0 0 0 0 0 0 0 0 0 0 0 0 0 0 0 0 0 0 0 0 0
0 0 0 0 0 0 0 0 0 0 0 0 0 0 0 0 0 0 0 0 0 0 0 0 0 0 0 0 0 0 0 0 0 0 0 0 0 0 0 0 0 0 0 0
0 0 0 0 0 0 0 0 0 0 0 0 0 0 0 0 0 0 0 0 0 0 0 0 0 0 0 0 0 0 0 0 0 0 0 0 0 0 0 0 0 0 0 0
0 0 0 0 0 0 0 0 0 0 0 0 0 0 0 0 0 0 0 0 0 0 0 0 0 0 0 0 0 0 0 0 0 0 0 0 0 0 0 0 0 0 0 0
0 0 0 0 0 0 0 0 0 0 0 0 0 0 0 0 0 0 0 0 0 0 0 0 0 0 0 0 0 0 0 0 0 0 0 0 0 0 0 0 0 0 0 0
0 0 0 0 0 0 0 0 0 0 0 0 0 0 0 0 0 0 0 0 0 0 0 0 0 0 0 0 0 0 0 0 0 0 0 0 0 0 0 0 0 0 0 0
0 0 0 0 0 0 0 0 0 0 0 0 0 0 0 0 0 0 0 0 0 0 0 0 0 0 0 0 0 0 0 0 0 0 0 0 0 0 0 0 0 0 0 0
0 0 0 0 0 0 0 0 0 0 0 0 0 0 0 0 0 0 0 0 0 0 0 0 0 0 0 0 0 0 0 0 0 0 0 0 0 0 0 0 0 0 0 0
0 0 0 0 0 0 0 0 0 0 0 0 0 0 0 0 0 0 0 0 0 0 0 0 0 0 0 0 0 0 0 0 0 0 0 0 0 0 0 0 0 0 0 0
0 0 0 0 0 0 0 0 0 0 0 0 0 0 0 0 0 0 0 0 0 0 0 0 0 0 0 0 0 0 0 0 0 0 0 0 0 0 0 0 0 0 0 0
0 0 0 0 0 0 0 0 0 0 0 0 0 0 0 0 0 0 0 0 0 0 0 0 0 0 0 0 0 0 0 0 0 0 0 0 0 0 0 0 0 0 0 0
0 0 0 0 0 0 0 0 0 0 0 0 0 0 0 0 0 0 0 0 0 0 0 0 0 0 0 0 0 0 0 0 0 0 0 0 0 0 0 0 0 0 0 0
0 0 0 0 0 0 0 0 0 0 0 0 0 0 0 0 0 0 0 0 0 0 0 0 0 0 0 0 0 0 0 0 0 0 0 0 0 0 0 0 0 0 0 0
0 0 0 0 0 0 0 0 0 0 0 0 0 0 0 0 0 0 0 0 0 0 0 0 0 0 0 0 0 0 0 0 0 0 0 0 0 0 0 0 0 0 0 0
0 0 0 0 0 0 0 0 0 0 0 0 0 0 0 0 0 0 0 0 0 0 0 0 0 0 0 0 0 0 0 0 0 0 0 0 0 0 0 0 0 0 0 0
0 0 0 0 0 0 0 0 0 0 0 0 0 0 0 0 0 0 0 0 0 0 0 0 0 0 0 0 0 0 0 0 0 0 0 0 0 0 0 0 0 0 0 0
0 0 0 0 0 0 0 0 0 0 0 0 0 0 0 0 0 0 0 0 0 0 0 0 0 0 0 0 0 0 0 0 0 0 0 0 0 0 0 0 0 0 0 0
0 0 0 0 0 0 0 0 0 0 0 0 0 0 0 0 0 0 0 0 0 0 0 0 0 0 0 0 0 0 0 0 0 0 0 0 0 0 0 0 0 0 0 0
0 0 0 0 0 0 0 0 0 0 0 0 0 0 0 0 0 0 0 0 0 0 0 0 0 0 0 0 0 0 0 0 0 0 0 0 0 0 0 0 0 0 0 0
0 0 0 0 0 0 0 0 0 0 0 0 0 0 0 0 0 0 0 0 0 0 0 0 0 0 0 0 0 0 0 0 0 0 0 0 0 0 0 0 0 0 0 0
0 0 0 0 0 0 0 0 0 0 0 0 0 0 0 0 0 0 0 0 0 0 0 0 0 0 0 0 0 0 0 0 0 0 0 0 0 0 0 0 0 0 0 0
0 0 0 0 0 0 0 0 0 0 0 0 0 0 0 0 0 0 0 0 0 0 0 0 0 0 0 0 0 0 0 0 0 0 0 0 0 0 0 0 0 0 0 0
0 0 0 0 0 0 0 0 0 0 0 0 0 0 0 0 0 0 0 0 0 0 0 0 0 0 0 0 0 0 0 0 0 0 0 0 0 0 0 0 0 0 0 0
Height
5823 5826 5826 5827 5827 5828 5828 5828 5828 5828 5828 5828 5827 5827 5826 5825 5824 5823 5822 5821 5819 5818 5816 5815 5813 5811 5810 5808 5806 5804 5802 5800 5799 5797 5795 5793 5791 5789 5787 5785 5782 5780 5778 5776
5820 5821 5822 5822 5823 5824 5824 5825 5825 5825 5824 5824 5823 5823 5822 5821 5820 5819 5818 5816 5815 5814 5812 5810 5809 5807 5805 5803 5801 5799 5797 5795 5793 5791 5789 5787 5785 5783 5780 5778 5775 5773 5770 5767
5814 5817 5817 5818 5819 5820 5821 5821 5821 5820 5820 5819 5819 5819 5819 5817 5816 5815 5813 5812 5811 5809 5808 5806 5804 5802 5800 5798 5796 5794 5792 5790 5787 5785 5783 5780 5778 5775 5773 5770 5767 5764 5761 5758
5809 5812 5813 5814 5815 5816 5817 5817 5817 5816 5815 5815 5815 5814 5815 5813 5812 5810 5809 5808 5806 5805 5803 5801 5799 5797 5795 5793 5791 5789 5786 5784 5781 5779 5776 5774 5771 5768 5765 5762 5759 5756 5752 5749
5805 5807 5808 5810 5811 5811 5812 5813 5812 5812 5811 5811 5810 5808 5810 5810 5808 5806 5805 5803 5801 5800 5798 5796 5794 5792 5790 5787 5785 5782 5780 5777 5775 5772 5769 5766 5763 5760 5757 5753 5750 5746 5743 5738
5800 5802 5804 5805 5806 5807 5808 5808 5808 5807 5806 5807 5806 5804 5803 5804 5803 5801 5800 5798 5796 5795 5793 5791 5789 5786 5784 5781 5779 5776 5773 5770 5767 5764 5761 5758 5755 5751 5748 5744 5740 5736 5732 5727
5795 5797 5798 5800 5801 5802 5803 5803 5803 5803 5802 5802 5802 5800 5800 5799 5797 5795 5794 5793 5791 5789 5787 5785 5783 5780 5777 5774 5772 5769 5766 5763 5759 5756 5753 5749 5745 5742 5738 5734 5729 5725 5720 5715
5789 5792 5794 5795 5796 5797 5797 5798 5799 5798 5798 5796 5796 5795 5796 5794 5791 5789 5788 5787 5785 5783 5781 5779 5776 5773 5770 5767 5764 5761 5758 5754 5751 5747 5743 5739 5735 5731 5727 5722 5717 5712 5707 5702
5783 5786 5789 5790 5791 5792 5792 5793 5793 5793 5792 5791 5791 5791 5791 5789 5786 5784 5782 5781 5779 5777 5774 5771 5769 5766 5763 5759 5756 5752 5749 5745 5741 5737 5733 5729 5724 5720 5715 5710 5704 5699 5693 5687
5778 5780 5783 5784 5785 5786 5788 5788 5788 5787 5786 5786 5786 5784 5784 5784 5781 5779 5776 5775 5772 5770 5767 5764 5761 5758 5754 5751 5747 5743 5739 5735 5731 5727 5722 5718 5713 5707 5702 5696 5690 5684 5678 5671
5773 5775 5777 5779 5780 5781 5782 5783 5782 5781 5781 5780 5779 5781 5778 5777 5775 5772 5770 5768 5765 5762 5759 5756 5753 5749 5746 5742 5738 5734 5730 5725 5721 5716 5711 5706 5700 5694 5688 5682 5676 5669 5662 5654
5767 5769 5770 5773 5775 5775 5776 5777 5776 5776 5776 5774 5773 5776 5772 5770 5767 5765 5763 5760 5757 5754 5751 5748 5744 5740 5737 5733 5728 5724 5719 5715 5710 5704 5699 5693 5687 5681 5674 5667 5660 5653 5645 5637
5761 5763 5765 5766 5770 5770 5770 5771 5770 5769 5769 5768 5767 5768 5764 5762 5759 5757 5755 5753 5749 5746 5742 5739 5735 5731 5727 5723 5718 5713 5708 5703 5698 5692 5686 5680 5673 5667 5659 5652 5644 5636 5628 5620
5756 5758 5761 5762 5761 5763 5764 5765 5764 5763 5762 5761 5761 5760 5756 5753 5751 5750 5747 5744 5741 5737 5733 5729 5725 5721 5717 5712 5708 5703 5697 5692 5686 5680 5673 5666 5659 5652 5644 5636 5628 5620 5611 5602
5750 5752 5754 5755 5754 5756 5757 5758 5757 5756 5756 5754 5754 5752 5750 5745 5742 5740 5738 5735 5732 5728 5724 5720 5715 5711 5707 5702 5696 5691 5685 5679 5673 5667 5660 5652 5644 5637 5628 5620 5612 5603 5594 5584
5743 5746 5747 5749 5748 5748 5750 5751 5750 5749 5748 5746 5745 5745 5742 5738 5735 5731 5728 5726 5722 5718 5714 5710 5705 5700 5696 5690 5685 5679 5673 5667 5660 5653 5645 5637 5629 5621 5613 5604 5595 5585 5576 5566
5737 5739 5740 5742 5742 5741 5744 5745 5743 5742 5741 5739 5737 5737 5733 5731 5727 5724 5720 5717 5713 5709 5704 5700 5695 5690 5684 5679 5673 5667 5660 5653 5646 5638 5630 5622 5613 5605 5596 5586 5577 5567 5557 5546
5731 5732 5732 5734 5735 5735 5740 5738 5736 5734 5733 5731 5728 5726 5724 5722 5718 5715 5711 5707 5703 5698 5694 5689 5684 5678 5672 5666 5660 5654 5646 5639 5631 5623 5614 5606 5597 5588 5578 5569 5559 5548 5537 5527
5724 5725 5725 5726 5726 5727 5730 5730 5727 5725 5725 5723 5720 5718 5715 5712 5709 5706 5701 5697 5693 5688 5683 5678 5672 5666 5660 5653 5647 5640 5632 5624 5616 5607 5599 5589 5580 5570 5561 5550 5540 5529 5518 5507
5717 5718 5718 5718 5717 5718 5722 5721 5718 5717 5716 5714 5711 5708 5706 5702 5699 5697 5691 5686 5682 5677 5671 5665 5659 5653 5647 5640 5633 5626 5618 5609 5600 5592 5582 5573 5562 5552 5542 5531 5520 5509 5498 5487
5710 5710 5711 5710 5708 5710 5713 5710 5708 5708 5707 5704 5701 5698 5695 5692 5689 5685 5680 5675 5670 5664 5659 5653 5647 5640 5633 5626 5618 5611 5602 5593 5584 5575 5566 5556 5545 5534 5523 5513 5501 5490 5479 5468
5702 5702 5703 5702 5701 5704 5702 5700 5699 5697 5695 5693 5690 5687 5684 5681 5677 5673 5668 5663 5657 5652 5646 5640 5634 5627 5619 5611 5603 5596 5587 5578 5569 5559 5549 5539 5528 5516 5505 5493 5482 5470 5458 5448
5694 5695 5694 5695 5696 5694 5692 5690 5688 5686 5684 5682 5679 5676 5673 5669 5665 5660 5655 5650 5645 5639 5633 5626 5620 5613 5605 5596 5588 5580 5571 5561 5552 5542 5532 5521 5510 5498 5486 5474 5463 5452 5439 5428
5686 5685 5685 5685 5685 5684 5682 5680 5678 5676 5673 5671 5668 5665 5661 5657 5652 5648 5643 5637 5632 5626 5619 5612 5605 5598 5590 5581 5572 5563 5554 5545 5535 5525 5514 5503 5492 5481 5469 5457 5444 5432 5420 5409
5676 5677 5675 5675 5675 5673 5672 5670 5667 5665 5662 5660 5656 5653 5649 5645 5640 5635 5630 5624 5618 5612 5605 5598 5591 5583 5575 5566 5557 5547 5537 5528 5518 5507 5496 5485 5474 5462 5451 5440 5427 5414 5403 5390
5667 5667 5666 5665 5664 5663 5662 5660 5657 5654 5651 5648 5645 5641 5637 5632 5627 5622 5617 5611 5605 5598 5591 5584 5576 5568 5559 5550 5541 5531 5521 5510 5500 5489 5478 5467 5455 5444 5432 5421 5412 5400 5387 5377
Wind_Speed
22 21 20 19 18 17 17 16 16 17 16 17 17 17 17 17 18 18 18 18 18 19 19 19 20 21 22 22 23 23 23 24 24 25 25 26 26 27 28 29 30 31 33 34
23 22 20 19 19 18 17 17 18 18 17 18 18 18 17 17 17 18 18 18 19 20 20 21 22 22 23 23 24 24 25 25 26 27 27 28 28 29 31 32 33 34 35 36
24 22 20 20 19 18 18 18 18 18 18 19 19 18 17 18 18 19 19 20 20 21 21 22 23 23 24 25 25 26 27 28 28 29 29 30 31 32 33 34 35 37 38 39
24 23 21 21 20 19 19 18 19 19 19 19 20 20 17 18 19 20 21 21 21 22 22 23 24 25 26 26 27 28 29 29 30 31 32 33 34 35 36 37 38 39 41 42
24 23 22 21 21 20 19 19 19 19 20 20 20 22 19 17 19 21 22 22 22 23 24 25 26 26 28 29 29 30 31 31 32 33 34 35 36 37 38 39 41 42 44 45
25 24 23 22 22 21 20 20 20 20 21 20 19 22 22 18 20 22 22 23 24 25 26 26 27 28 29 30 31 32 33 33 34 36 37 38 38 40 41 42 44 45 47 49
26 25 24 23 22 22 21 20 21 21 21 21 19 21 22 21 22 23 23 24 25 26 27 28 29 30 31 32 34 34 35 36 37 38 39 40 41 42 44 45 47 49 51 53
27 26 24 23 23 22 21 21 21 21 21 22 20 21 21 22 24 25 25 26 27 28 29 30 31 32 34 34 36 36 38 39 39 40 41 42 44 45 47 49 51 53 54 56
28 27 24 24 23 23 21 21 21 22 22 23 23 24 21 22 25 26 27 28 29 30 31 32 33 35 36 37 38 39 40 41 42 43 44 45 47 49 50 52 54 56 57 59
27 27 24 24 24 23 22 21 22 23 24 25 24 25 25 22 25 27 29 30 31 32 33 34 35 37 38 39 40 41 42 43 44 46 47 48 50 52 54 55 57 59 61 63
28 28 25 24 24 23 23 23 23 24 25 26 26 26 27 26 27 29 31 31 32 33 35 36 38 39 40 40 41 43 44 45 46 48 50 51 53 55 57 58 60 62 64 65
28 28 27 25 24 25 24 23 24 25 26 27 28 28 26 28 30 32 32 33 34 35 37 38 39 40 41 42 44 45 47 48 49 51 52 54 56 58 60 61 63 64 66 67
27 27 26 26 26 25 24 23 25 27 28 28 29 30 29 30 32 33 33 34 36 37 38 39 40 41 43 44 46 47 49 50 51 53 55 57 59 61 62 64 65 66 67 69
27 26 26 26 27 25 24 25 26 28 29 29 28 29 31 34 34 34 34 36 37 38 39 41 42 43 45 46 48 49 51 52 54 55 58 60 62 63 65 66 67 68 69 71
27 26 26 26 28 27 27 26 27 28 29 31 29 30 31 36 36 37 37 37 39 40 41 42 44 45 46 48 50 51 53 54 56 58 60 62 64 65 66 67 69 70 71 73
27 26 26 27 28 29 28 26 28 29 30 32 32 31 32 34 36 38 40 40 41 42 43 44 45 47 48 50 51 53 55 57 59 61 63 64 66 67 68 69 70 72 73 75
28 28 28 28 29 30 29 26 28 29 30 32 33 32 33 35 36 39 40 41 42 44 45 46 47 49 50 52 54 56 57 59 61 63 65 66 67 69 70 71 72 74 75 76
29 29 30 29 30 31 28 27 28 30 31 32 34 34 36 37 38 40 41 42 44 45 46 48 49 51 52 54 56 58 59 61 63 65 66 68 69 70 71 73 74 76 77 77
29 29 30 31 32 32 29 28 29 31 32 32 34 36 37 38 40 41 42 44 45 46 48 50 51 52 54 56 58 59 61 63 65 67 68 69 71 72 73 75 76 77 78 78
30 30 32 32 34 34 30 30 31 33 34 33 35 37 38 40 41 42 44 46 47 48 50 51 52 54 56 58 59 61 63 65 67 68 69 70 72 74 75 76 77 78 78 78
30 32 33 34 36 35 32 33 34 35 37 37 38 39 40 42 43 45 46 48 49 50 51 53 54 55 57 59 61 63 65 66 68 69 71 72 74 75 77 78 78 78 79 78
31 33 34 35 37 35 34 36 37 38 39 40 41 42 43 44 45 47 48 49 50 51 53 54 55 57 59 61 63 65 66 68 69 71 72 73 75 77 78 78 78 79 79 78
33 33 35 35 36 37 38 39 40 41 42 42 43 45 46 47 48 49 50 51 52 53 54 56 57 59 60 62 65 66 68 69 71 72 74 75 76 77 78 78 79 78 78 76
35 34 36 37 37 38 40 41 42 43 44 44 45 47 48 49 50 51 51 52 53 54 56 58 59 60 62 64 66 68 70 71 73 74 75 76 77 78 78 78 78 77 75 73
36 35 37 38 39 40 41 42 43 44 45 46 47 48 49 50 51 51 52 53 54 56 58 59 61 63 64 66 68 70 72 73 74 75 77 77 78 78 78 77 76 74 71 68
35 36 38 39 39 40 41 42 44 45 46 48 49 49 50 51 51 52 53 54 56 58 60 61 63 64 66 68 69 71 73 75 76 77 78 78 78 78 77 76 73 69 65 62
Wind_Direction
250 251 252 254 256 258 262 266 272 278 283 285 287 291 295 297 298 298 299 299 300 300 300 299 299 299 299 299 299 299 298 298 297 296 295 294 293 292 292 292 292 291 291 291
250 251 251 253 254 256 261 266 272 276 281 284 286 290 294 297 298 298 299 300 300 300 299 299 300 300 300 299 299 299 299 298 298 296 295 294 294 294 293 293 293 293 293 293
249 250 250 251 253 256 260 266 271 276 279 283 286 288 292 295 297 298 299 300 300 300 300 299 299 299 300 299 299 299 299 298 298 296 296 295 296 295 295 294 294 294 294 294
249 249 249 251 252 256 260 266 270 275 278 282 286 288 290 293 297 298 299 300 300 300 300 299 299 298 299 299 299 299 299 298 297 297 296 296 296 296 295 294 294 294 294 294
248 248 249 251 252 256 260 264 269 273 277 281 286 289 292 295 297 297 299 300 300 300 300 299 299 299 299 299 299 299 298 297 296 296 297 297 296 296 295 295 295 294 295 295
249 248 249 251 253 256 259 263 267 271 275 278 282 287 292 301 298 298 299 300 299 300 300 300 299 299 299 299 299 298 298 297 297 297 297 297 296 296 296 296 296 296 296 296
247 248 249 251 253 255 258 263 266 269 273 277 280 285 294 301 299 299 300 299 299 300 300 300 299 300 299 299 299 298 298 298 298 297 297 297 296 296 296 297 296 296 296 296
247 249 248 250 251 253 256 261 266 271 276 280 283 286 294 297 298 299 299 299 299 300 301 301 300 300 300 300 299 299 299 298 298 298 298 298 297 297 297 298 297 297 298 298
248 249 247 249 251 253 255 259 265 270 273 277 282 285 287 292 295 297 298 299 300 300 301 302 301 301 301 300 300 300 299 299 299 299 299 299 299 299 299 299 299 299 299 299
247 250 248 249 251 252 255 259 263 268 273 277 282 287 291 294 293 295 296 298 299 300 301 301 302 302 301 300 300 300 300 300 299 299 299 299 300 300 300 300 301 301 301 301
245 249 249 249 250 253 256 260 264 268 273 280 284 286 293 295 294 295 296 298 299 300 301 301 301 301 301 301 301 301 301 301 300 300 300 301 301 301 302 302 302 303 302 302
243 247 250 248 249 253 256 260 264 269 274 278 283 286 292 292 293 294 297 299 299 300 301 301 301 301 301 301 301 302 302 301 301 301 301 302 302 303 303 304 304 304 303 303
241 245 250 251 250 254 259 262 266 270 274 280 284 290 292 291 292 295 297 298 299 300 301 301 301 301 301 301 301 302 302 302 302 302 303 303 304 304 304 305 305 305 305 305
241 245 250 255 257 258 260 263 268 272 277 280 284 288 290 292 294 296 297 298 300 300 301 301 301 301 301 301 301 302 302 303 303 303 304 304 305 305 306 305 306 306 306 306
243 246 249 254 259 263 264 266 270 273 277 281 285 286 289 292 295 297 298 299 300 301 301 301 301 301 301 301 302 302 303 303 304 304 305 305 306 306 306 306 306 307 307 307
245 248 251 254 260 264 267 271 273 276 279 282 284 287 288 290 293 296 298 300 300 301 301 301 301 301 301 301 302 303 303 304 305 305 306 306 306 307 307 307 307 308 308 308
247 251 254 256 260 265 269 273 275 278 280 283 286 288 289 290 292 294 297 299 300 300 301 301 301 301 301 302 302 303 304 305 305 306 306 307 307 307 308 308 309 309 309 309
248 253 256 259 262 266 273 275 278 279 281 284 287 289 290 292 293 295 297 299 299 300 301 301 301 301 302 302 303 304 304 305 306 307 307 308 308 309 309 310 310 310 310 310
250 254 259 263 266 270 274 279 280 281 282 286 288 289 291 293 294 296 298 298 299 300 300 301 301 302 302 303 304 304 305 306 307 308 309 309 309 310 310 311 311 311 311 311
251 256 261 266 269 273 278 281 282 283 285 287 288 290 292 293 295 297 298 299 300 300 301 302 302 303 303 304 305 306 307 307 308 309 310 310 310 311 311 312 312 312 312 312
253 258 263 268 271 275 282 284 285 286 289 289 291 292 293 295 296 298 299 300 301 302 302 303 303 304 304 305 306 307 308 308 309 310 311 311 312 312 312 312 313 313 313 313
256 260 264 268 273 280 283 285 286 288 289 291 293 294 296 297 298 299 300 301 302 303 303 304 304 305 306 306 307 308 309 309 310 311 312 312 313 313 313 313 314 314 314 313
259 263 267 270 275 279 282 285 287 288 289 291 293 295 296 298 299 300 301 302 303 303 304 305 306 306 307 308 308 309 310 311 311 312 312 313 313 313 314 314 314 314 314 313
261 265 269 273 276 280 282 285 286 287 289 291 293 295 297 298 299 300 301 302 303 304 305 306 307 307 308 309 309 310 311 311 312 313 313 313 314 314 314 315 315 315 314 313
264 267 271 274 277 280 282 284 285 287 289 291 293 295 297 298 299 300 301 302 303 305 306 307 307 308 309 309 310 311 311 312 313 313 313 314 314 314 315 315 316 315 315 314
267 271 273 275 277 278 281 283 285 287 289 291 293 295 296 298 300 301 302 303 304 305 306 307 308 309 309 310 311 311 312 313 313 314 314 314 315 315 315 316 316 315 314 314